CWPO9207 Weather Reports


Display with metric or nautical units.
time (UTC)temp
F
wind
direction
speed
MPH
gust
MPH
rain 1hr
in
rain 24hr
in
rain mn
in
humidity
%
barometer
mb
20260506190128 71 260 0.0 0.0 0.00 0.00 0.00 61 30.8
20260506183128 69 234 0.0 0.0 0.00 0.00 0.00 63 30.8
20260506180128 67 225 0.0 0.0 0.00 0.00 0.00 65 30.8
20260506173128 65 238 0.0 0.0 0.00 0.00 0.00 66 30.8
20260506170127 64 234 0.0 0.0 0.00 0.00 0.00 71 30.8
20260506163128 62 123 0.0 0.0 0.00 0.00 0.00 74 30.8
20260506160127 61 150 0.0 0.0 0.00 0.00 0.00 77 30.8
20260506153127 59 238 0.0 0.0 0.00 0.00 0.00 77 30.8
20260506143127 51 186 0.0 0.0 0.00 0.00 0.00 91 30.8
20260506140127 47 186 0.0 0.0 0.00 0.00 0.00 92 30.8
20260506133127 46 186 0.0 0.0 0.00 0.00 0.00 91 30.8
20260506130127 46 186 0.0 0.0 0.00 0.00 0.00 91 30.8
20260506123127 46 186 0.0 0.0 0.00 0.00 0.00 90 30.8
20260506120126 46 186 0.0 0.0 0.00 0.00 0.00 90 30.8
20260506113126 47 186 0.0 0.0 0.00 0.00 0.00 90 30.8
20260506100125 48 186 0.0 0.0 0.00 0.00 0.00 90 30.8
20260506090125 48 186 0.0 0.0 0.00 0.00 0.00 89 30.8
20260506083125 49 186 0.0 0.0 0.00 0.00 0.00 88 30.8
20260506080125 49 186 0.0 0.0 0.00 0.00 0.00 87 30.8
20260506073125 49 186 0.0 0.0 0.00 0.02 0.00 87 30.8
20260506070124 50 186 0.0 0.0 0.00 0.04 0.00 87 30.8
20260506060124 52 186 0.0 0.0 0.00 0.04 0.04 85 30.8
20260506050124 53 186 0.0 0.0 0.00 0.04 0.04 83 30.7
20260506043123 55 186 0.0 0.0 0.00 0.04 0.04 79 30.7
20260506040124 56 186 0.0 0.0 0.00 0.04 0.04 76 30.7
20260506030123 59 186 0.0 0.0 0.00 0.04 0.04 71 30.7
20260506020123 61 130 0.0 0.0 0.00 0.04 0.04 68 30.7
20260506013123 62 194 0.0 0.0 0.00 0.04 0.04 67 30.7
20260506010123 62 201 0.0 0.0 0.00 0.04 0.04 66 30.7
20260506003123 63 296 0.0 0.0 0.00 0.04 0.04 66 30.7
20260506000123 64 22 0.0 0.0 0.00 0.04 0.04 63 30.7
20260505233123 64 300 0.0 0.0 0.00 0.04 0.04 60 30.7
20260505230122 67 131 0.0 0.0 0.00 0.04 0.04 54 30.7
20260505223122 67 37 0.0 0.0 0.00 0.04 0.04 55 30.7
20260505220122 67 198 0.0 0.0 0.00 0.04 0.04 57 30.7
20260505213121 67 252 0.0 0.0 0.00 0.04 0.04 57 30.7
20260505210121 65 271 0.0 0.0 0.00 0.04 0.04 59 30.7
20260505203121 66 261 0.0 0.0 0.00 0.04 0.04 61 30.7
20260505200121 66 355 0.0 0.0 0.00 0.04 0.04 59 30.7
20260505193120 66 93 0.0 0.0 0.00 0.04 0.04 64 30.7